Flag for United Kingdom Weather past 2 weeks in Stornoway, Scotland, United Kingdom

Now
46 °F

Passing clouds.


Feels Like: 40 °F
Forecast: 42 / 49 °F
Wind: 14 mph from West

Location: Stornoway

Current Time: May 30, 2015 at 6:35:49 AM

Latest Report: May 30, 2015 at 5:50 AM


Visibility: N/A

Pressure: 29.71 "Hg

Humidity: 82%

Dew point: 41 °F

Location of StornowayLocation

Historic Weather in Stornoway — Graph

°F

Stornoway temperature yesterday

Maximum temperature yesterday: 54 °F (at 1:20 PM)
Minimum temperature yesterday: 37 °F (at 4:20 AM)
Average temperature yesterday: 45 °F

Past Weeks' High & Low Weather Summary

 TemperatureHumidityPressure
High57 °F (May 20, 1:50 PM)100% (May 21, 7:20 AM)30.30 "Hg (May 21, 7:20 AM)
Low36 °F (May 19, 1:50 AM)51% (May 20, 2:50 PM)29.39 "Hg (May 18, 12:20 PM)
Average47 °F76%29.85 "Hg
* Reported May 15 5:20 AM — May 30 5:20 AM, Stornoway, Weather by CustomWeather, © 2015

Note: Actual official high and low records may vary slightly from our data, if they occured in-between our weather recording intervals... More about our weather records

Advertising

Stornoway weather history for previous 24 hours

 ConditionsComfort  
Time TempWeatherWind HumidityBarometerVisibility
5:20 AM
Sat, May 30
46 °FPassing clouds.14 mph82%29.68 "HgN/A
4:20 AM45 °FPassing clouds.15 mph81%29.68 "HgN/A
3:50 AM45 °FPartly cloudy.17 mph81%29.68 "HgN/A
3:20 AM46 °FLight rain. Passing clouds.20 mph76%29.68 "Hg4 mi
2:50 AM46 °FPassing clouds.18 mph76%29.68 "HgN/A
2:20 AM46 °FPartly cloudy.16 mph76%29.68 "HgN/A
1:50 AM45 °FPassing clouds.15 mph81%29.68 "HgN/A
1:20 AM45 °FPartly cloudy.16 mph76%29.68 "HgN/A
12:50 AM45 °FPassing clouds.18 mph81%29.68 "HgN/A
12:20 AM45 °FPassing clouds.15 mph76%29.65 "HgN/A
11:50 PM
Fri, May 29
43 °FPassing clouds.13 mph76%29.68 "HgN/A
11:20 PM45 °FPassing clouds.14 mph76%29.68 "HgN/A
10:50 PM43 °FPassing clouds.13 mph76%29.68 "HgN/A
10:20 PM45 °FScattered clouds.15 mph71%29.68 "HgN/A
9:50 PM45 °FPassing clouds.10 mph76%29.68 "HgN/A
9:20 PM45 °FPassing clouds.10 mph76%29.65 "HgN/A
8:50 PM45 °FLight rain. Scattered clouds.18 mph76%29.65 "HgN/A
8:20 PM48 °FPassing clouds.16 mph62%29.65 "HgN/A
7:50 PM48 °FPassing clouds.17 mph62%29.65 "HgN/A
7:20 PM50 °FPassing clouds.17 mph58%29.62 "HgN/A
6:50 PM50 °FScattered clouds.14 mph62%29.62 "HgN/A
6:20 PM50 °FScattered clouds.16 mph62%29.62 "HgN/A
5:50 PM50 °FPassing clouds.14 mph62%29.62 "HgN/A
5:20 PM52 °FPassing clouds.15 mph58%29.62 "HgN/A
4:50 PM52 °FScattered clouds.15 mph67%29.62 "HgN/A
4:20 PM50 °FScattered showers. Scattered clouds.12 mph67%29.62 "HgN/A
3:50 PM50 °FScattered showers. Scattered clouds.16 mph67%29.59 "HgN/A
3:20 PM52 °FScattered showers. Scattered clouds.16 mph77%29.59 "HgN/A
2:50 PM48 °FSprinkles. Scattered clouds.21 mph76%29.59 "HgN/A
2:20 PM48 °FScattered showers. Scattered clouds.16 mph76%29.59 "HgN/A
1:50 PM50 °FScattered showers. Scattered clouds.16 mph67%29.59 "HgN/A
1:20 PM54 °FScattered showers. Scattered clouds.16 mph63%29.56 "HgN/A
12:50 PM46 °FScattered showers. Scattered clouds.14 mph76%29.56 "HgN/A
12:20 PM50 °FScattered showers. Scattered clouds.7 mph76%29.56 "HgN/A
11:50 AM52 °FScattered showers. Scattered clouds.15 mph72%29.56 "HgN/A
11:20 AM50 °FScattered showers. Scattered clouds.14 mph71%29.56 "HgN/A
10:50 AM52 °FScattered showers. Scattered clouds.9 mph72%29.56 "HgN/A
10:20 AM45 °FScattered showers. Scattered clouds.12 mph76%29.56 "HgN/A
9:50 AM45 °FScattered showers. Scattered clouds.16 mph81%29.56 "HgN/A
9:20 AM46 °FRain showers. Scattered clouds.2 mph82%29.56 "HgN/A
8:50 AM46 °FRain showers. Scattered clouds.7 mph76%29.56 "HgN/A
8:20 AM43 °FScattered showers. Scattered clouds.8 mph81%29.56 "HgN/A
7:50 AM43 °FScattered showers. Scattered clouds.3 mph81%29.53 "HgN/A
7:20 AM43 °FScattered showers. Scattered clouds.3 mph81%29.53 "HgN/A
6:50 AM41 °FScattered showers. Scattered clouds.5 mph81%29.53 "HgN/A
6:20 AM43 °FScattered showers. Scattered clouds.6 mph81%29.53 "HgN/A
Weather by CustomWeather, © 2015

See weather overviewHow to use our weather pages